Retour au catalogue

CZ-4 DEB

ActifSSO
NORAD 26208·DEBRIS·🇨🇳 China

Lancé Oct 14, 1999 depuis Taiyuan Satellite Launch Center

Loading…

Prochains Passages (prochaines 24 heures)

TLE

FraisSource: Space-Track

Époque: Sep 14, 2026, 10:15 UTC

1 26208U 99057CW  26257.42722888  .00000390  00000-0  99052-4 0  9992
2 26208  98.5532 238.0869 0068534 218.5076 295.2103 14.55156971400339

Suivez CZ-4 DEB en temps réel avec AllMySat

Download on the App Store